Location: Baia Mare
(47.6567°N, 23.5850°E)
Time: 14:34:44
(UTC+03:00)

ISS - Pass Details

Date: 08 July 2019
Orbit: 409 x 418 km, 51.6° (Epoch: 21 July)

Event Time Altitude Azimuth Distance (km) Brightness Sun altitude
Exits shadow 02:44:22 40° 136° (SE) 621 -3.2 -17.9°
Drops below altitude 10° 02:47:18 10° 75° (ENE) 1,479 -0.6 -17.7°
Sets 02:49:27 0° 68° (ENE) 2,342 0.7 -17.6°
